Regional Weather Roundup
Issued by NWS Cleveland, OH

Home | Current Version | Previous Version | Graphics & Text | Print | Product List | Glossary On
Versions: 1 2 3 4 5 6 7 8 9 10 11 12 13 14 15 16 17 18 19 20 21 22 23 24 25 26 27 28 29 30 31 32 33 34 35 36 37 38 39 40 41 42 43 44 45 46 47 48 49 50
000
ASUS41 KCLE 240310
RWRCLE
OHIO REGIONAL WEATHER ROUNDUP
NATIONAL WEATHER SERVICE CLEVELAND, OH
1100 PM EDT SAT MAY 23 2015

NOTE: "FAIR" INDICATES FEW OR NO CLOUDS BELOW 12,000 FEET WITH NO
SIGNIFICANT WEATHER AND/OR OBSTRUCTIONS TO VISIBILITY.

OHZ001>008-015>018-024>027-034-035-043-044-240400-
   NORTHWEST OHIO

CITY           SKY/WX    TMP DP  RH WIND       PRES   REMARKS
DEFIANCE       PTCLDY    61  50  67 CALM      30.26S
FINDLAY        MOCLDY    66  46  48 S6        30.27S
TOLEDO EXPRESS CLEAR     61  42  49 SE3       30.27S
TOLEDO EXEC    CLEAR     60  42  51 E6        30.28S
LIMA           CLEAR     65  45  48 S6        30.28S
$$

OHZ009>014-019>023-028>033-038-089-240400-
   NORTHEAST OHIO

CITY           SKY/WX    TMP DP  RH WIND       PRES   REMARKS
CLE-HOPKINS    PTCLDY    60  39  45 SE3       30.32R
CLE-LAKEFRONT  CLEAR     64  38  38 SE6       30.29S
CUY CO. ARPT   PTCLDY    59  39  47 SE7       30.31S
LORAIN-ELYRIA  CLEAR     59  38  45 S3        30.31R
ASHTABULA      CLEAR     48  42  80 CALM      30.33S
AKRON-CANTON   CLEAR     60  39  45 S6        30.33R
WOOSTER        CLEAR     55  41  59 CALM      30.33R
MANSFIELD      CLEAR     60  42  51 SE8       30.32R
YOUNGSTOWN     PTCLDY    50  41  71 SE6       30.33R
$$

OHZ042-051>053-060>062-070>072-077>081-240400-
  SOUTHWEST OHIO

CITY           SKY/WX    TMP DP  RH WIND       PRES   REMARKS
CINC-COVINGTON PTCLDY    65  47  52 SE5       30.29R
CINC-LUNKEN    CLEAR     58  50  75 CALM      30.29S
HAMILTON       CLEAR     61  48  62 E3        30.29S
DAYTON         CLEAR     68  44  42 SE6       30.30S
WRIGHT-PAT AFB CLEAR     64  47  55 E2        30.29R
DAYTON GENERAL CLEAR     66  44  45 S3        30.29R
WILMINGTON     CLEAR     63  43  48 SE5       30.31R
$$

OHZ036-037-039>041-045>050-054>059-063>069-073>076-082>088-240400-
  CENTRAL AND SOUTHEAST OHIO

CITY           SKY/WX    TMP DP  RH WIND       PRES   REMARKS
COLUMBUS       CLEAR     64  43  46 SE5       30.31R
OSU AIRPORT    CLEAR     66  41  40 SE5       30.31R
BOLTON FIELD   NOT AVBL
RICKENBACK AFB CLEAR     62  44  51 SE3       30.30S
NEWARK         CLEAR     54  47  77 CALM      30.32R
MARION         CLEAR     61  43  51 S7        30.31R
LANCASTER      CLEAR     56  48  74 CALM      30.32R
ZANESVILLE     CLEAR     57  44  62 CALM      30.33R
NEW PHILLY     CLEAR     56  45  66 CALM      30.34R
$$



USA.gov is the U.S. government's official web portal to all federal, state and local government web resources and services.